COSMOS 374 DEB

Satellite information

Favourite Embed

Satellite Type and Status

DEBRISIN ORBIT

Key statistics

Satellite COSMOS 374 DEB at a glance.

Uptime

20088

Days in orbit

Revolutions

≈ 13.0

Per day

Orbit

LEO

Low Earth Orbit

Inclination

63.0

Latest

Satellite identification and parameters

Extended collection of information and parameters for COSMOS 374 DEB.

Object identification

Identified? True

Debris? True

Object name: COSMOS 374 DEB

International designator: 1970-089BS

Object number (NORAD): 5337

Object ID (CCSDS): 5337

Country: COMMONWEALTH OF INDEPENDENT STATES (CIS)

Current information (Y/N): Y

RCS size: SMALL

Orbital parameters

Period: 110.851 minutes

Inclination: 62.9599 deg

SMA: 7643.976 km

Apoapsis: 1842.794 km

Periapsis: 688.887 km

RAAN: 20.8189 deg

Eccentricy: 0.07547821

Argument of periapsis: 314.0158 deg

Mean anomaly: 40.0953 deg

Mean motion: 12.99043855 rev/day

Mean motion (dot): 0.00002622 rev/day2

B* drag term: 0.0023536907 1/REarth

Two-line elements (TLE)

Creation date: Oct. 20, 2025, 6:08 p.m.

Reference frame: TEME

Reference center: EARTH

Epoch: Oct. 20, 2025, 8:29 a.m. UTC

TLE line 0: 0 COSMOS 374 DEB

TLE line 1: 1 05337U 70089BS 25293.35414541 .00002622 00000-0 23537-2 0 9994

TLE line 2: 2 05337 62.9599 20.8189 0754782 314.0158 40.0953 12.99043855119337

Live tracking on map

Real-time ground track for satellite COSMOS 374 DEB.

In-orbit conjunctions

A list of the most updated potential collisions computed for object COSMOS 374 DEB.

Target Orbit TCA Probability of collision Miss distance Type
TRIAD 1 SSO 2025-04-12 09:33:19 0.0002029242 110.0 (m) PAYLOAD

Associated space launch

The I2P satellites were the first soviet coorbital ASAT system.

COSMOS 374 DEB was lifted into orbit during the mission ‘Tsiklon-2 | I2P 4’, on board a Tsiklon-2 space rocket.

The launch took place on Oct. 23, 1970, 4:42 a.m. from 90/20.

For more information about the launch, click the button.

Launch to space Tsiklon-2 | I2P 4
Tsiklon-2 | I2P 4

Agency: N/A

Status: Launch Successful

Launch date: Oct. 23, 1970, 4:42 a.m. UTC

Rocket: Tsiklon-2

Launch pad: 90/20

Location: Baikonur Cosmodrome, Republic of Kazakhstan

...

Latest news about this satellite

There are no fresh news available about this satellite. Check back as we update our databases every day.


Newsletter sign-up

Weekly statistics, charts and insights to help you stay on top of the space industry.